Weather History for Leonardtown, MD

Change the Weather History Date:

Wednesday, February 6, 2013

  Actual Average (KNHK) Record (KNHK)
Temperature  
Mean Temperature 37 °F -  
Max Temperature 46 °F 37 °F 33 °F (2014)
Min Temperature 28 °F 23 °F 28 °F (2014)
Degree Days  
Heating Degree Days 28    
Moisture  
Dew Point 28 °F    
Average Humidity 72    
Maximum Humidity 100    
Minimum Humidity 43    
Precipitation  
Precipitation 0.00 in - - ()
Sea Level Pressure  
Sea Level Pressure 30.17 in    
Wind  
Wind Speed 1 mph (North)    
Max Wind Speed 8 mph    
Max Gust Speed 16 mph    
Visibility 8 miles    
Events      
Averages and records for this station are not official NWS values.
T = Trace of Precipitation, MM = Missing Value Source: NWS Daily Summary

Daily Weather History Graph

Daily Weather History Graph

Search for Another Location

Airport:

Trip Planner

Search our weather history database for the weather conditions in past years. The results will help you decide how hot, cold, wet, or windy it might be!

Date:

Astronomy

Feb. 06, 2013 Rise Set
Actual Time 7:06 AM EST 5:34 PM EST
Civil Twilight 6:38 AM EST 6:02 PM EST
Nautical Twilight 6:07 AM EST 6:33 PM EST
Astronomical Twilight 5:36 AM EST 7:04 PM EST
Moon 3:46 AM EST (2/6) 1:52 PM EST (2/6)
Length of Visible Light 11h 23m
Length of Day
10h 28m
Waning Crescent, 17% of the Moon is Illuminated
Feb 6
Waning Crescent
Feb 10
New
Feb 17
First Quarter
Feb 25
Full
Mar 4
Last Quarter

Hourly Weather History & Observations

Time (EST) Temp. Windchill Dew Point Humidity Pressure Visibility Wind Dir Wind Speed Gust Speed Precip Events Conditions
12:16 AM 30.2 °F - 28.4 °F 93% 29.94 in 4.0 mi Calm Calm - N/A   Clear
12:38 AM 30.2 °F - 28.4 °F 93% 29.95 in 3.0 mi Calm Calm - N/A   Clear
12:59 AM 32.0 °F - 30.2 °F 93% 29.96 in 5.0 mi Calm Calm - N/A   Mostly Cloudy
1:20 AM 32.0 °F - 30.2 °F 93% 29.96 in 7.0 mi Calm Calm - N/A   Mostly Cloudy
1:42 AM 32.0 °F - 30.2 °F 93% 29.96 in 7.0 mi Calm Calm - N/A   Mostly Cloudy
2:03 AM 32.0 °F - 30.2 °F 93% 29.97 in 5.0 mi Calm Calm - N/A   Scattered Clouds
2:24 AM 32.0 °F - 28.4 °F 87% 29.98 in 4.0 mi Calm Calm - N/A   Clear
2:46 AM 30.2 °F - 28.4 °F 93% 29.97 in 5.0 mi Calm Calm - N/A   Scattered Clouds
3:07 AM 30.2 °F - 28.4 °F 93% 29.97 in 4.0 mi Calm Calm - N/A   Scattered Clouds
3:28 AM 30.2 °F - 28.4 °F 93% 29.97 in 5.0 mi Calm Calm - N/A   Mostly Cloudy
3:50 AM 30.2 °F - 28.4 °F 93% 29.97 in 3.0 mi Calm Calm - N/A   Scattered Clouds
4:11 AM 30.2 °F - 28.4 °F 93% 29.99 in 2.5 mi Calm Calm - N/A   Clear
4:33 AM 30.2 °F - 28.4 °F 93% 29.99 in 4.0 mi Calm Calm - N/A   Mostly Cloudy
4:54 AM 30.2 °F - 28.4 °F 93% 30.00 in 3.0 mi Calm Calm - N/A   Mostly Cloudy
5:15 AM 30.2 °F - 28.4 °F 93% 30.02 in 4.0 mi Calm Calm - N/A   Overcast
5:37 AM 30.2 °F - 28.4 °F 93% 30.03 in 4.0 mi Calm Calm - N/A   Scattered Clouds
5:58 AM 28.4 °F - 28.4 °F 100% 30.05 in 3.0 mi Calm Calm - N/A   Scattered Clouds
6:19 AM 28.4 °F - 26.6 °F 93% 30.07 in 4.0 mi Calm Calm - N/A   Scattered Clouds
6:40 AM 28.4 °F - 26.6 °F 93% 30.08 in 4.0 mi Calm Calm - N/A   Scattered Clouds
7:02 AM 28.4 °F - 26.6 °F 93% 30.09 in 2.5 mi Calm Calm - N/A   Scattered Clouds
7:23 AM 30.2 °F - 28.4 °F 93% 30.10 in 2.5 mi Calm Calm - N/A   Clear
7:44 AM 30.2 °F - 26.6 °F 86% 30.10 in 3.0 mi Calm Calm - N/A   Clear
8:06 AM 30.2 °F - 28.4 °F 93% 30.12 in 2.5 mi Calm Calm - N/A   Clear
8:27 AM 32.0 °F - 30.2 °F 93% 30.14 in 3.0 mi Calm Calm - N/A   Clear
8:48 AM 35.6 °F - 32.0 °F 87% 30.15 in 4.0 mi Calm Calm - N/A   Scattered Clouds
9:09 AM 37.4 °F - 32.0 °F 81% 30.16 in 7.0 mi Calm Calm - N/A   Mostly Cloudy
9:31 AM 39.2 °F - 32.0 °F 75% 30.16 in 10.0 mi Calm Calm - N/A   Scattered Clouds
9:52 AM 41.0 °F 38.0 °F 30.2 °F 65% 30.17 in 10.0 mi North 4.6 mph - N/A   Clear
10:13 AM 41.0 °F 39.0 °F 30.2 °F 65% 30.18 in 10.0 mi NNW 3.5 mph - N/A   Clear
10:59 AM 42.8 °F 38.6 °F 30.2 °F 61% 30.19 in 10.0 mi NW 6.9 mph - N/A   Clear
11:20 AM 42.8 °F 39.3 °F 30.2 °F 61% 30.20 in 10.0 mi North 5.8 mph - N/A   Clear
11:42 AM 44.6 °F 42.2 °F 30.2 °F 57% 30.19 in 10.0 mi North 4.6 mph - N/A   Clear
12:03 PM 44.6 °F 43.1 °F 30.2 °F 57% 30.19 in 10.0 mi North 3.5 mph - N/A   Scattered Clouds
12:04 PM 44.6 °F 43.1 °F 30.2 °F 57% 30.19 in 10.0 mi NNE 3.5 mph - N/A   Scattered Clouds
12:18 PM 46.4 °F 42.4 °F 30.2 °F 53% 30.18 in 10.0 mi NNW 8.1 mph - N/A   Scattered Clouds
12:38 PM 46.4 °F 42.9 °F 28.4 °F 50% 30.18 in 10.0 mi NW 6.9 mph - N/A   Clear
12:58 PM 46.4 °F 43.5 °F 28.4 °F 50% 30.18 in 10.0 mi NW 5.8 mph 16.1 mph N/A   Scattered Clouds
1:19 PM 46.4 °F 44.3 °F 28.4 °F 50% 30.19 in 10.0 mi North 4.6 mph - N/A   Scattered Clouds
1:39 PM 46.4 °F 44.3 °F 30.2 °F 53% 30.18 in 10.0 mi North 4.6 mph - N/A   Scattered Clouds
1:59 PM 46.4 °F 43.5 °F 28.4 °F 50% 30.18 in 10.0 mi NNE 5.8 mph - N/A   Scattered Clouds
2:19 PM 46.4 °F 45.2 °F 30.2 °F 53% 30.19 in 10.0 mi NE 3.5 mph - N/A   Scattered Clouds
2:39 PM 46.4 °F - 28.4 °F 50% 30.19 in 10.0 mi Calm Calm - N/A   Clear
2:59 PM 46.4 °F - 28.4 °F 50% 30.19 in 10.0 mi Calm Calm - N/A   Clear
3:19 PM 46.4 °F 44.3 °F 28.4 °F 50% 30.19 in 10.0 mi NNE 4.6 mph - N/A   Clear
3:39 PM 46.4 °F 43.5 °F 26.6 °F 46% 30.20 in 10.0 mi North 5.8 mph - N/A   Clear
3:59 PM 46.4 °F 42.9 °F 26.6 °F 46% 30.20 in 10.0 mi NNW 6.9 mph - N/A   Clear
4:19 PM 46.4 °F 43.5 °F 26.6 °F 46% 30.21 in 10.0 mi NW 5.8 mph - N/A   Clear
4:39 PM 46.4 °F 42.9 °F 24.8 °F 43% 30.22 in 10.0 mi NNW 6.9 mph - N/A   Clear
4:59 PM 44.6 °F 43.1 °F 24.8 °F 46% 30.22 in 10.0 mi NNW 3.5 mph - N/A   Clear
5:19 PM 44.6 °F - 24.8 °F 46% 30.23 in 10.0 mi Calm Calm - N/A   Clear
5:39 PM 42.8 °F - 24.8 °F 49% 30.25 in 10.0 mi Calm Calm - N/A   Clear
5:59 PM 41.0 °F 39.0 °F 26.6 °F 57% 30.26 in 10.0 mi ENE 3.5 mph - N/A   Clear
6:19 PM 39.2 °F 37.0 °F 28.4 °F 65% 30.27 in 10.0 mi ENE 3.5 mph - N/A   Clear
6:39 PM 37.4 °F - 28.4 °F 70% 30.28 in 10.0 mi Calm Calm - N/A   Clear
6:59 PM 37.4 °F - 28.4 °F 70% 30.29 in 10.0 mi Calm Calm - N/A   Clear
7:19 PM 37.4 °F - 28.4 °F 70% 30.30 in 10.0 mi Calm Calm - N/A   Clear
7:59 PM 35.6 °F - 28.4 °F 75% 30.32 in 10.0 mi Calm Calm - N/A   Clear
8:19 PM 35.6 °F - 26.6 °F 70% 30.33 in 10.0 mi Calm Calm - N/A   Clear
8:39 PM 35.6 °F - 26.6 °F 70% 30.34 in 10.0 mi Calm Calm - N/A   Clear
8:59 PM 35.6 °F - 24.8 °F 65% 30.35 in 10.0 mi Calm Calm - N/A   Clear
9:19 PM 33.8 °F - 24.8 °F 70% 30.36 in 10.0 mi Calm Calm - N/A   Clear
9:39 PM 33.8 °F - 24.8 °F 70% 30.37 in 10.0 mi Calm Calm - N/A   Clear
9:59 PM 33.8 °F - 24.8 °F 70% 30.37 in 10.0 mi Calm Calm - N/A   Clear
10:20 PM 33.8 °F - 24.8 °F 70% 30.37 in 10.0 mi Calm Calm - N/A   Clear
10:40 PM 33.8 °F - 24.8 °F 70% 30.37 in 10.0 mi Calm Calm - N/A   Clear
11:00 PM 32.0 °F - 23.0 °F 69% 30.37 in 10.0 mi Calm Calm - N/A   Clear
11:20 PM 30.2 °F - 23.0 °F 75% 30.37 in 10.0 mi Calm Calm - N/A   Clear
11:40 PM 30.2 °F - 23.0 °F 75% 30.37 in 10.0 mi Calm Calm - N/A   Clear